Regional Weather Roundup
Issued by NWS Raleigh/Durham, NC

Home | Current Version | Previous Version | Text Only | Print | Product List | Glossary On
Versions: 1 2 3 4 5 6 7 8 9 10 11 12 13 14 15 16 17 18 19 20 21 22 23 24 25 26 27 28 29 30 31 32 33 34 35 36 37 38 39 40 41 42 43 44 45 46 47 48 49 50
000
ASUS42 KRAH 302110
RWRRAH
NORTH CAROLINA WEATHER ROUNDUP
NATIONAL WEATHER SERVICE RALEIGH NC
500 PM EDT SAT MAY 30 2015

NOTE: "FAIR" INDICATES FEW OR NO CLOUDS BELOW 12,000 FEET WITH NO
SIGNIFICANT WEATHER AND/OR OBSTRUCTIONS TO VISIBILITY.

NCZ001-053-055-056-065-067-302200-
WESTERN NORTH CAROLINA

CITY           SKY/WX    TMP DP  RH WIND       PRES   REMARKS
ASHEVILLE      MOSUNNY   76  57  51 S12       30.18F
JEFFERSON      PTSUNNY   73  56  54 SE7       30.22S
MORGANTON        N/A    N/A N/A N/A S8        30.17F
HICKORY        MOSUNNY   83  59  44 VRB6      30.13F
RUTHERFORDTON  MOSUNNY   80  61  53 S7        30.14F
MOUNT AIRY     MOSUNNY   85  63  48 SW10      30.14F
BOONE          MOSUNNY   75  58  55 SE10G17   30.23S
$$

NCZ021-022-025-041-071-084-088-302200-
CENTRAL NORTH CAROLINA

CITY           SKY/WX    TMP DP  RH WIND       PRES   REMARKS
CHARLOTTE      PTSUNNY   85  58  39 SE8       30.12F
GREENSBORO     PTSUNNY   85  61  44 S12       30.12F
WINSTON-SALEM  PTSUNNY   85  58  39 SE8       30.12F
RALEIGH-DURHAM MOSUNNY   87  64  46 SE8       30.12F
FORT BRAGG     SUNNY     87  61  40 VRB7      30.10F
FAYETTEVILLE   SUNNY     88  62  41 E10       30.10F
BURLINGTON     MOSUNNY   86  63  45 S8        30.11F
LAURINBURG     SUNNY     88  56  33 S12       30.11F
$$

NCZ011-015-027-028-043-044-047-080-103-302200-
NORTHEASTERN NORTH CAROLINA

CITY           SKY/WX    TMP DP  RH WIND       PRES   REMARKS
ROCKY MT-WILSO MOSUNNY   87  65  47 VRB7      30.12F
GREENVILLE     MOSUNNY   86  64  48 SE9       30.13F
WASHINGTON     SUNNY     83  65  53 SE10      30.15S
ELIZABETH CITY SUNNY     80  66  62 SE17      30.16F
MANTEO         SUNNY     79  64  60 SE12G17   30.17F
CAPE HATTERAS  SUNNY     81  63  54 E8        30.17F
$$

NCZ078-087-090-091-093-098-101-302200-
SOUTHEASTERN NORTH CAROLINA

CITY           SKY/WX    TMP DP  RH WIND       PRES   REMARKS
LUMBERTON      MOSUNNY   89  65  44 SE9       30.10F
GOLDSBORO      NOT AVBL
KENANSVILLE    SUNNY     83  64  51 S5        30.13F
NEW BERN       SUNNY     84  63  49 SE14      30.16F
CHERRY POINT   MOSUNNY   84  63  49 SE10      30.16F
BEAUFORT       SUNNY     80  64  58 E10       30.16F
JACKSONVILLE   SUNNY     81  64  56 SE12      30.14F
WILMINGTON     SUNNY     81  65  58 SE10      30.15F
$$




USA.gov is the U.S. government's official web portal to all federal, state and local government web resources and services.